STARLINK-4284, 53023

Orbit data source: Space-Track

STARLINK-4284, 53023 is a payload satellite owned by SpaceX/Seattle (US) in LEO that was launched on Thu, 07 Jul 2022 UTC via an FALCON 9 launch vehicle from the Air Force Eastern Test Range (AFETR). Payload-class satellites include a variety of spacecraft equipped with specific instruments for various scientific and technological missions. These include communications satellites like Starlink; space stations such as the ISS; scientific satellites like the Hubble; Earth observation satellites from companies like Planet Labs, Umbra, and HawkEye 360; GPS; miniature CubeSats for education and research; and military/defense satellites.

Loading next visibility...
Identifier
53023, 2022-076AP
Orbit
LEO
Country
Flag of USUS
Related business
Manufacturer
SpaceX/Seattle
Mission
Operational Commercial Communications
Bus & Motor
STARLINK, Unknown motor
Mass
297 kg wet, ~275 kg dry
Launch date (UTC)
2022-07-07 (4 years ago)
Launch vehicle
FALCON 9
Launch site
Air Force Eastern Test Range (AFETR)
Object type
Payload
Rocket body
Debris
Shape & HBR
Box + 1 Pan, 10.1 m
Radar Cross Section
13.562 m², Large (>1 m²)

Expand to show TLE details & history
Last TLE update: 2 days ago

TLE from 2 days ago
0 STARLINK-4284
1 53023U 22076AP  26171.20049381  .00000669  00000-0  60138-4 0  9997
2 53023  53.1597 343.8064 0001230  91.3664 268.7469 15.08836118218462
Epoch: 2026-06-20T04:48Z
TLE epoch observation values (Epoch: 2026-06-20T04:48:42.665Z)
Latitude
0.00005°
Longitude
3.21014°
Altitude
540.665 km
Speed
7.593 km/s
True Right ascension
22h 55m 13s
True Declination
0° 00' 00"
Sunlit
Object was in daylight at epoch
Visualization orbit readout
Latitude
Unknown
Longitude
Unknown
Altitude
Unknown
Speed
Unknown
Apparent Right ascension
Unknown
Apparent Declination
Unknown
Sunlit
N/A
Visualization observer readout
Local Sidereal Time
00:56:43
Azimuth
Unknown
Elevation
Unknown
Doppler factor
Unknown
Orbital elements
Apogee altitude
540.86 km
Perigee altitude
539.158 km
Semi-major axis
6,918.146 km
Eccentricity
0.00012
Inclination
53.1597°
RAAN
343.8064°
Arg. of periapsis
91.3664°
True anomaly
268.73281°
Mean anomaly
268.7469°
Eccentric anomaly
268.73985°
Mean motion
3.77189 °/min
Orbital period
95.44 mins
BSTAR
0.000060138
Loading maneuver chart data...
Computing Atmospheric mass density...
Loading historical data...
Loading historical data...
Loading historical data...
Loading historical data...
Loading historical data...
Loading historical data...
Loading historical data...

Documentation

Showing up to 5 results
|